FENGYUN 1C DEB, 32234

Orbit data source: Space-Track

FENGYUN 1C DEB, 32234 is space debris in SSO originally from a launch on Mon, 10 May 1999 UTC launched from the Taiyaun Space Center, China (TSC). Fengyun 1C debris stems from the Chinese weather satellite Fengyun-1C, which was intentionally destroyed by a Chinese anti-satellite missile in 2007. This event dramatically increased the amount of space debris, with thousands of trackable fragments posing hazards to satellites and human spaceflight. The Fengyun 1C debris cloud has become a focal point in discussions about space sustainability and the need for international regulations to prevent the creation of new debris.

Loading next visibility...
Identifier
32234, 1999-025CWG
Orbit
SSO
Country
Flag of CNCN / PRC
Related business
Manufacturer
Unknown
Mission
Spacecraft
Bus & Motor
Unknown
Mass
Unknown
Launch date (UTC)
1999-05-10 (27 years ago)
Launch vehicle
Unknown
Launch site
Taiyaun Space Center, China (TSC)
Object type
Payload
Rocket body
Debris
Shape & HBR
Unknown shape, 0.1 m
Radar Cross Section
Small (<0.1 m²)

Expand to show TLE details & history
Last TLE update: 4 days ago

TLE from 4 days ago
0 FENGYUN 1C DEB
1 32234U 99025CWG 26142.02720126  .00000901  00000-0  65281-3 0  9999
2 32234  98.5204 344.7300 0133725 250.9260 107.7381 13.94707347954437
Epoch: 2026-05-22T00:39Z
TLE epoch observation values (Epoch: 2026-05-22T00:39:10.188Z)
Latitude
-0.00001°
Longitude
95.2736°
Altitude
945.95 km
Speed
7.363 km/s
True Right ascension
22h 58m 55s
True Declination
0° 00' 00"
Sunlit
Object was in daylight at epoch
Visualization orbit readout
Latitude
Unknown
Longitude
Unknown
Altitude
Unknown
Speed
Unknown
Apparent Right ascension
Unknown
Apparent Declination
Unknown
Sunlit
N/A
Visualization observer readout
Local Sidereal Time
20:38:49
Azimuth
Unknown
Elevation
Unknown
Doppler factor
Unknown
Orbital elements
Apogee altitude
1,006.816 km
Perigee altitude
811.911 km
Semi-major axis
7,287.501 km
Eccentricity
0.01337
Inclination
98.5204°
RAAN
344.73°
Arg. of periapsis
250.926°
True anomaly
109.19007°
Mean anomaly
107.7381°
Eccentric anomaly
108.46484°
Mean motion
3.48879 °/min
Orbital period
103.19 mins
BSTAR
0.00065281
Loading maneuver chart data...
Computing Atmospheric mass density...
Loading historical data...
Loading historical data...
Loading historical data...
Loading historical data...
Loading historical data...
Loading historical data...
Loading historical data...

Documentation

Showing up to 5 results
|